KIAH

Houston Intercontinental

Airport
ICAO code
KIAH
Summary
ICAO Region
NAM
ICAO Territory
Location

Houston, Texas,

Elevation
97 ft
Coordinates
29° 59' 4" N , 95° 20' 29" W
KCC
Airport LOS
Parallel Runway Operation
Airport WX
Tropical Revolving Storm
Metar
Observation
KIAH 290810Z 00000KT 3/4SM BR OVC002 18/18 A2982 RMK AO2 T01780178
Station
Houston, Houston Intercontinental Airport
Date/Time
2022-11-29 08:10:00
Wind direction
Wind speed
00 kts
Lowest cloud amount
overcast
Temperature
17.8°C
Dew point
17.8°C
Humidity
100%
Weather condition
mist

Description

International airport serving Houston Texas.

Climatology

Humid “subtropical” climate (Köppen climate classification Cfa) - characterized by hot, humid summers and cool winters. Significant amounts of precipitation occur in all seasons in most areas. Winter rainfall (and sometimes snowfall) is associated with large storms that the westerlies steer from west to east. Most summer rainfall occurs during thunderstorms and occasional tropical storms (hurricanes).

Airport map

Aerial View

SKYbrary Partners:

Safety knowledge contributed by: